This is the latest recevied weather packets stored in our database for station/object XE2OR-10. If no packets are shown the sender has not sent any weather packets the latest 10 day(s).
| Time | Temp. | Humidity | Pressure | Rain* | Wind** | Luminosity | Snow |
|---|---|---|---|---|---|---|---|
| 1777928928 | 30.56° C | 60% | 1014.5 hPa | 0 mm | - | 553 W/m² | - |
| 1777928629 | 30.56° C | 61% | 1014.5 hPa | 0 mm | - | 622 W/m² | - |
| 1777928328 | 30° C | 62% | 1014.7 hPa | 0 mm | - | 481 W/m² | - |
| 1777928032 | 30.56° C | 62% | 1014.7 hPa | 0 mm | - | 634 W/m² | - |
| 1777927729 | 30° C | 61% | 1014.8 hPa | 0 mm | - | 650 W/m² | - |
| 1777927432 | 31.11° C | 62% | 1015 hPa | 0 mm | - | 640 W/m² | - |
| 1777927129 | 30° C | 62% | 1015 hPa | 0 mm | - | 687 W/m² | - |
| 1777926829 | 31.11° C | 62% | 1015 hPa | 0 mm | - | 694 W/m² | - |
| 1777926528 | 30° C | 63% | 1015.1 hPa | 0 mm | - | 707 W/m² | - |
| 1777926232 | 30.56° C | 62% | 1015.1 hPa | 0 mm | - | 721 W/m² | - |
| 1777925929 | 30° C | 62% | 1015.5 hPa | 0 mm | - | 746 W/m² | - |
| 1777925632 | 30° C | 63% | 1015.4 hPa | 0 mm | - | 705 W/m² | - |
| 1777925329 | 29.44° C | 62% | 1015.4 hPa | 0 mm | - | 750 W/m² | - |
| 1777925029 | 28.89° C | 64% | 1015.3 hPa | 0 mm | - | 599 W/m² | - |
| 1777924728 | 29.44° C | 64% | 1015.5 hPa | 0 mm | - | 478 W/m² | - |
| 1777924433 | 29.44° C | 64% | 1015.8 hPa | 0 mm | - | 805 W/m² | - |
| 1777924130 | 29.44° C | 63% | 1015.6 hPa | 0 mm | - | 808 W/m² | - |
| 1777923832 | 29.44° C | 64% | 1015.6 hPa | 0 mm | - | 799 W/m² | - |
| 1777923528 | 29.44° C | 65% | 1015.6 hPa | 0 mm | - | 816 W/m² | - |
| 1777923229 | 29.44° C | 64% | 1015.7 hPa | 0 mm | - | 811 W/m² | - |
| 1777922929 | 28.89° C | 64% | 1015.7 hPa | 0 mm | - | 423 W/m² | - |
| 1777922633 | 29.44° C | 64% | 1015.8 hPa | 0 mm | - | 445 W/m² | - |
| 1777922329 | 29.44° C | 64% | 1016 hPa | 0 mm | - | 598 W/m² | - |
| 1777922033 | 30° C | 64% | 1015.8 hPa | 0 mm | - | 365 W/m² | - |
| 1777921729 | 30° C | 63% | 1016 hPa | 0 mm | - | 794 W/m² | - |
* Rain latest hour (hover to see other rain measurements)
** Current wind speed in m/s (hover to see current wind gust speed)